Flag for Colombia Weather past 2 weeks in Villavicencio, Colombia

Now
66 °F

Scattered showers. Partly sunny.


Feels Like: 66 °F
Forecast: 65 / 88 °F
Wind: 7 mph from Northeast

Location: Bogota / Eldorado

Current Time: Dec 25, 2014 at 1:37:25 PM

Latest Report: Dec 25, 2014 at 1:00 PM


Visibility: N/A

Pressure: 30.30 "Hg

Humidity: 52%

Dew point: 48 °F

Location of VillavicencioLocation

Historic Weather in Villavicencio — Graph

°F

Villavicencio temperature yesterday

Maximum temperature yesterday: 68 °F (at 2:00 PM)
Minimum temperature yesterday: 45 °F (at 5:00 AM)
Average temperature yesterday: 56 °F

Past Weeks' High & Low Weather Summary

 TemperatureHumidityPressure
High84 °F (Dec 16, 11:00 AM)100% (Dec 11, 1:00 AM)30.40 "Hg (Dec 11, 1:00 AM)
Low41 °F (Dec 19, 5:00 AM)32% (Dec 22, 11:00 AM)29.96 "Hg (Dec 16, 11:00 AM)
Average56 °F78%30.30 "Hg
* Reported Dec 10 12:00 Noon — Dec 25 12:00 Noon, Villavicencio, Weather by CustomWeather, © 2014

Note: Actual official high and low records may vary slightly from our data, if they occured in-between our weather recording intervals... More about our weather records

Advertising

Villavicencio weather history for previous 24 hours

 ConditionsComfort  
Time TempWeatherWind HumidityBarometerVisibility
12:00 PM
Dec 25
64 °FPartly sunny.5 mph56%30.32 "HgN/A
11:00 AM63 °FScattered showers. Scattered clouds.5 mph64%30.34 "HgN/A
10:00 AM61 °FScattered showers. Scattered clouds.7 mph68%30.37 "HgN/A
9:00 AM57 °FScattered showers. Broken clouds.7 mph77%30.38 "HgN/A
8:00 AM54 °FScattered clouds.7 mph88%30.37 "HgN/A
7:00 AM48 °FFog.2 mph94%30.34 "HgN/A
6:00 AM46 °FFog.2 mph93%30.32 "HgN/A
5:00 AM50 °FPassing clouds.3 mph88%30.29 "HgN/A
4:00 AM52 °FPassing clouds.3 mph88%30.30 "Hg6 mi
3:00 AM52 °FPassing clouds.3 mph88%30.30 "Hg6 mi
2:00 AM52 °FPartly cloudy.2 mph88%30.31 "Hg6 mi
1:00 AM50 °FPassing clouds.5 mph94%30.33 "HgN/A
12:00 AM48 °FPassing clouds.2 mph94%30.34 "HgN/A
11:00 PM
Dec 24
50 °FPassing clouds.3 mph88%30.36 "HgN/A
10:00 PM55 °FPassing clouds.3 mph77%30.35 "HgN/A
9:00 PM55 °FPassing clouds.3 mph77%30.34 "HgN/A
8:00 PM57 °FPassing clouds.5 mph67%30.31 "HgN/A
7:00 PM59 °FPassing clouds.15 mph63%30.28 "HgN/A
6:00 PM61 °FPassing clouds.9 mph52%30.26 "HgN/A
5:00 PM64 °FBroken clouds.9 mph52%30.24 "HgN/A
4:00 PM64 °FPartly sunny.13 mph46%30.23 "HgN/A
3:00 PM66 °FPartly sunny.6 mph40%30.24 "HgN/A
2:00 PM68 °FPartly sunny.12 mph38%30.26 "HgN/A
1:00 PM66 °FScattered clouds.8 mph49%30.29 "HgN/A
Weather by CustomWeather, © 2014

See weather overviewHow to use our weather pages